N16W KDAB-TUPJ

Flight info

Callsign N16W
Flight time 2h 26m
Altitude 37000
Route ILIND DCT MLB DCT CVIKK Y185 RENAH Y355 KOLAO
Aircraft CL60/M-SBDE1E2E3FGHIJ1J4J5J7M3RWXYZ/LB1V1D1

Departure

Time 2026-05-04 23:12
Airport Daytona Beach International Airport (KDAB)

Arrival

Time 2026-05-05 01:38
Airport Terrance B. Lettsome International Airport (TUPJ)
Time Latitude Longitude Altitude Speed Heading
2026-05-04 22:16 29.18562 -81.05620 35 ft 0 kts 337°
2026-05-04 23:09 29.18575 -81.05621 35 ft 4 kts 24°
2026-05-04 23:09 29.18592 -81.05590 35 ft 5 kts 64°
2026-05-04 23:09 29.18624 -81.05563 35 ft 7 kts
2026-05-04 23:09 29.18682 -81.05582 35 ft 10 kts 337°
2026-05-04 23:10 29.18756 -81.05617 35 ft 12 kts 338°
2026-05-04 23:10 29.18844 -81.05660 35 ft 14 kts 337°
2026-05-04 23:10 29.18946 -81.05707 35 ft 16 kts 338°
2026-05-04 23:10 29.19015 -81.05735 35 ft 7 kts 358°
2026-05-04 23:11 29.19049 -81.05709 35 ft 5 kts 68°
2026-05-04 23:11 29.19067 -81.05660 35 ft 7 kts 68°
2026-05-04 23:11 29.19068 -81.05624 35 ft 4 kts 155°
2026-05-04 23:11 29.18992 -81.05587 35 ft 39 kts 157°
2026-05-04 23:12 29.18428 -81.05318 34 ft 129 kts 156°
2026-05-04 23:12 29.17446 -81.04874 402 ft 163 kts 155°
2026-05-04 23:12 29.16362 -81.04372 1107 ft 179 kts 154°
2026-05-04 23:12 29.15142 -81.03812 1611 ft 198 kts 154°
2026-05-04 23:13 29.13854 -81.03226 2089 ft 204 kts 155°
2026-05-04 23:13 29.12514 -81.02636 2605 ft 209 kts 155°
2026-05-04 23:13 29.11066 -81.01994 3091 ft 241 kts 156°
2026-05-04 23:13 29.09405 -81.01260 3576 ft 261 kts 157°
2026-05-04 23:14 29.07700 -81.00512 4084 ft 264 kts 158°
2026-05-04 23:14 29.05979 -80.99757 4603 ft 266 kts 158°
2026-05-04 23:14 29.04249 -80.98998 5133 ft 267 kts 158°
2026-05-04 23:14 29.02513 -80.98236 5661 ft 270 kts 159°
2026-05-04 23:15 29.00738 -80.97458 6185 ft 273 kts 159°
2026-05-04 23:15 28.98952 -80.96674 6712 ft 275 kts 160°
2026-05-04 23:15 28.97158 -80.95887 7233 ft 278 kts 160°
2026-05-04 23:15 28.95348 -80.95094 7756 ft 282 kts 160°
2026-05-04 23:16 28.93508 -80.94287 8282 ft 285 kts 160°
2026-05-04 23:16 28.91640 -80.93469 8807 ft 288 kts 160°
2026-05-04 23:16 28.89773 -80.92650 9325 ft 291 kts 160°
2026-05-04 23:16 28.87843 -80.91805 9858 ft 298 kts 160°
2026-05-04 23:17 28.85818 -80.90920 10218 ft 324 kts 160°
2026-05-04 23:17 28.83676 -80.89982 10968 ft 335 kts 160°
2026-05-04 23:17 28.81465 -80.89014 11847 ft 342 kts 160°
2026-05-04 23:17 28.79253 -80.88045 12716 ft 346 kts 160°
2026-05-04 23:18 28.76966 -80.87045 13579 ft 352 kts 160°
2026-05-04 23:18 28.74677 -80.86043 14336 ft 357 kts 161°
2026-05-04 23:18 28.72335 -80.85019 15124 ft 363 kts 161°
2026-05-04 23:18 28.69968 -80.83997 15912 ft 366 kts 163°
2026-05-04 23:19 28.67541 -80.83098 16653 ft 370 kts 167°
2026-05-04 23:19 28.65066 -80.82250 17357 ft 375 kts 167°
2026-05-04 23:19 28.62569 -80.81393 18084 ft 379 kts 167°
2026-05-04 23:19 28.60031 -80.80521 18793 ft 382 kts 168°
2026-05-04 23:20 28.57477 -80.79643 19503 ft 385 kts 168°
2026-05-04 23:20 28.54897 -80.78758 20145 ft 390 kts 168°
2026-05-04 23:20 28.52286 -80.77863 20719 ft 395 kts 168°
2026-05-04 23:20 28.49614 -80.76945 21317 ft 400 kts 168°
2026-05-04 23:21 28.46944 -80.76030 21906 ft 403 kts 168°
2026-05-04 23:21 28.44260 -80.75108 22496 ft 407 kts 168°
2026-05-04 23:21 28.41544 -80.74178 23030 ft 411 kts 168°
2026-05-04 23:21 28.38787 -80.73233 23590 ft 415 kts 169°
2026-05-04 23:22 28.35994 -80.72276 24183 ft 418 kts 169°
2026-05-04 23:22 28.33212 -80.71323 24701 ft 422 kts 169°
2026-05-04 23:22 28.30388 -80.70357 25196 ft 426 kts 169°
2026-05-04 23:22 28.27549 -80.69385 25716 ft 429 kts 169°
2026-05-04 23:23 28.24652 -80.68395 26173 ft 433 kts 169°
2026-05-04 23:23 28.21714 -80.67390 26652 ft 436 kts 169°
2026-05-04 23:23 28.18735 -80.66373 27127 ft 439 kts 169°
2026-05-04 23:23 28.15776 -80.65273 27540 ft 447 kts 163°
2026-05-04 23:24 28.12987 -80.63558 27960 ft 460 kts 149°
2026-05-04 23:24 28.10537 -80.61089 28381 ft 471 kts 135°
2026-05-04 23:24 28.08660 -80.57944 28758 ft 481 kts 118°
2026-05-04 23:24 28.07371 -80.54429 29063 ft 488 kts 112°
2026-05-04 23:25 28.06145 -80.50852 29340 ft 492 kts 113°
2026-05-04 23:25 28.04885 -80.47198 29687 ft 495 kts 113°
2026-05-04 23:25 28.03642 -80.43594 30078 ft 496 kts 113°
2026-05-04 23:25 28.02382 -80.39947 30413 ft 499 kts 113°
2026-05-04 23:26 28.01112 -80.36270 30781 ft 500 kts 113°
2026-05-04 23:26 27.99840 -80.32594 31096 ft 502 kts 114°
2026-05-04 23:26 27.98562 -80.28904 31378 ft 504 kts 114°
2026-05-04 23:26 27.97271 -80.25178 31654 ft 506 kts 114°
2026-05-04 23:27 27.95985 -80.21473 31937 ft 507 kts 114°
2026-05-04 23:27 27.94704 -80.17785 32186 ft 509 kts 115°
2026-05-04 23:27 27.93402 -80.14040 32428 ft 511 kts 115°
2026-05-04 23:27 27.92106 -80.10317 32633 ft 513 kts 114°
2026-05-04 23:28 27.90787 -80.06529 32874 ft 513 kts 115°
2026-05-04 23:28 27.89481 -80.02784 33150 ft 513 kts 115°
2026-05-04 23:28 27.88156 -79.98985 33350 ft 515 kts 115°
2026-05-04 23:28 27.86847 -79.95239 33516 ft 516 kts 115°
2026-05-04 23:29 27.85521 -79.91449 33694 ft 518 kts 115°
2026-05-04 23:29 27.84199 -79.87672 33872 ft 519 kts 115°
2026-05-04 23:29 27.82873 -79.83888 34073 ft 519 kts 115°
2026-05-04 23:29 27.81552 -79.80125 34297 ft 519 kts 115°
2026-05-04 23:30 27.80219 -79.76327 34512 ft 519 kts 115°
2026-05-04 23:30 27.78887 -79.72538 34721 ft 519 kts 115°
2026-05-04 23:30 27.77563 -79.68774 34938 ft 519 kts 115°
2026-05-04 23:30 27.76221 -79.64964 35131 ft 519 kts 115°
2026-05-04 23:31 27.74907 -79.61236 35350 ft 519 kts 115°
2026-05-04 23:31 27.73559 -79.57416 35540 ft 519 kts 116°
2026-05-04 23:31 27.72240 -79.53681 35749 ft 519 kts 116°
2026-05-04 23:31 27.70903 -79.49900 35928 ft 519 kts 116°
2026-05-04 23:32 27.69571 -79.46139 36076 ft 520 kts 116°
2026-05-04 23:32 27.68234 -79.42364 36239 ft 520 kts 116°
2026-05-04 23:32 27.66898 -79.38596 36462 ft 519 kts 116°
2026-05-04 23:32 27.65556 -79.34817 36652 ft 518 kts 116°
2026-05-04 23:33 27.64205 -79.31017 36781 ft 518 kts 116°
2026-05-04 23:33 27.62864 -79.27246 36913 ft 518 kts 116°
2026-05-04 23:33 27.61527 -79.23492 37027 ft 519 kts 116°
2026-05-04 23:33 27.60179 -79.19711 37018 ft 521 kts 116°
2026-05-04 23:34 27.57482 -79.12158 37020 ft 522 kts 117°
2026-05-04 23:34 27.54768 -79.04571 37022 ft 521 kts 117°
2026-05-04 23:35 27.52068 -78.97039 37021 ft 520 kts 117°
2026-05-04 23:35 27.49366 -78.89515 37024 ft 519 kts 117°
2026-05-04 23:36 27.46668 -78.82017 37030 ft 519 kts 117°
2026-05-04 23:36 27.43949 -78.74479 37027 ft 519 kts 117°
2026-05-04 23:37 27.41233 -78.66962 37027 ft 520 kts 117°
2026-05-04 23:37 27.38509 -78.59439 37027 ft 521 kts 117°
2026-05-04 23:38 27.35769 -78.51886 37020 ft 521 kts 117°
2026-05-04 23:38 27.33045 -78.44390 37015 ft 521 kts 117°
2026-05-04 23:39 27.30294 -78.36835 37015 ft 521 kts 117°
2026-05-04 23:39 27.27554 -78.29324 37021 ft 520 kts 118°
2026-05-04 23:40 27.24798 -78.21788 37020 ft 519 kts 118°
2026-05-04 23:40 27.22069 -78.14338 37016 ft 520 kts 118°
2026-05-04 23:41 27.19324 -78.06859 37017 ft 520 kts 118°
2026-05-04 23:41 27.16559 -77.99339 37011 ft 520 kts 118°
2026-05-04 23:42 27.13799 -77.91848 37017 ft 519 kts 118°
2026-05-04 23:42 27.11054 -77.84410 37019 ft 519 kts 118°
2026-05-04 23:43 27.08302 -77.76971 37013 ft 519 kts 118°
2026-05-04 23:43 27.05528 -77.69484 37020 ft 519 kts 118°
2026-05-04 23:44 27.02767 -77.62049 37013 ft 519 kts 118°
2026-05-04 23:44 26.99648 -77.54830 37021 ft 509 kts 129°
2026-05-04 23:45 26.95792 -77.48208 37023 ft 508 kts 130°
2026-05-04 23:45 26.91924 -77.41585 37020 ft 509 kts 130°
2026-05-04 23:46 26.88033 -77.34932 37023 ft 510 kts 131°
2026-05-04 23:46 26.84179 -77.28302 37028 ft 509 kts 131°
2026-05-04 23:47 26.80295 -77.21687 37020 ft 508 kts 131°
2026-05-04 23:47 26.76428 -77.15108 37020 ft 509 kts 130°
2026-05-04 23:48 26.72518 -77.08461 37024 ft 510 kts 130°
2026-05-04 23:48 26.68625 -77.01852 37028 ft 510 kts 131°
2026-05-04 23:49 26.64709 -76.95211 37027 ft 511 kts 131°
2026-05-04 23:49 26.60793 -76.88577 37025 ft 510 kts 130°
2026-05-04 23:50 26.56899 -76.81992 37026 ft 512 kts 130°
2026-05-04 23:50 26.52939 -76.75311 37023 ft 521 kts 130°
2026-05-04 23:51 26.48905 -76.68510 37024 ft 528 kts 130°
2026-05-04 23:51 26.44835 -76.61654 37022 ft 529 kts 130°
2026-05-04 23:52 26.40781 -76.54833 37020 ft 529 kts 130°
2026-05-04 23:52 26.36731 -76.48029 37024 ft 528 kts 130°
2026-05-04 23:53 26.32662 -76.41204 37025 ft 528 kts 130°
2026-05-04 23:53 26.28601 -76.34403 37024 ft 528 kts 131°
2026-05-04 23:54 26.24554 -76.27636 37025 ft 528 kts 131°
2026-05-04 23:54 26.20484 -76.20843 37030 ft 528 kts 131°
2026-05-04 23:55 26.16405 -76.14042 37028 ft 529 kts 131°
2026-05-04 23:56 26.10290 -76.03867 37041 ft 529 kts 131°
2026-05-04 23:56 26.06184 -75.97047 37033 ft 529 kts 131°
2026-05-04 23:57 26.02093 -75.90263 37029 ft 530 kts 131°
2026-05-04 23:57 25.97983 -75.83459 37032 ft 532 kts 131°
2026-05-04 23:58 25.93855 -75.76631 37029 ft 531 kts 131°
2026-05-04 23:58 25.89741 -75.69839 37028 ft 530 kts 131°
2026-05-04 23:59 25.85640 -75.63076 37031 ft 530 kts 131°
2026-05-04 23:59 25.81518 -75.56290 37028 ft 530 kts 131°
2026-05-05 00:00 25.77396 -75.49513 37033 ft 528 kts 131°
2026-05-05 00:00 25.73292 -75.42776 37028 ft 528 kts 131°
2026-05-05 00:01 25.69191 -75.36053 37024 ft 527 kts 131°
2026-05-05 00:01 25.65090 -75.29340 37024 ft 527 kts 131°
2026-05-05 00:02 25.60981 -75.22624 37023 ft 527 kts 131°
2026-05-05 00:02 25.56887 -75.15944 37023 ft 527 kts 132°
2026-05-05 00:03 25.52773 -75.09239 37022 ft 527 kts 131°
2026-05-05 00:03 25.48667 -75.02557 37029 ft 526 kts 132°
2026-05-05 00:04 25.44554 -74.95873 37032 ft 526 kts 131°
2026-05-05 00:04 25.40439 -74.89195 37030 ft 526 kts 132°
2026-05-05 00:05 25.36316 -74.82514 37030 ft 526 kts 131°
2026-05-05 00:05 25.32198 -74.75851 37031 ft 527 kts 131°
2026-05-05 00:06 25.28069 -74.69179 37031 ft 527 kts 131°
2026-05-05 00:06 25.23918 -74.62481 37038 ft 528 kts 131°
2026-05-05 00:07 25.19787 -74.55824 37027 ft 528 kts 131°
2026-05-05 00:07 25.15703 -74.49254 37019 ft 528 kts 131°
2026-05-05 00:08 25.11534 -74.42556 37015 ft 529 kts 131°
2026-05-05 00:08 25.07397 -74.35915 37012 ft 528 kts 131°
2026-05-05 00:09 25.03241 -74.29256 37014 ft 527 kts 131°
2026-05-05 00:09 24.99080 -74.22598 37008 ft 528 kts 132°
2026-05-05 00:10 24.94920 -74.15950 37011 ft 529 kts 131°
2026-05-05 00:10 24.90728 -74.09263 37013 ft 529 kts 131°
2026-05-05 00:11 24.86544 -74.02594 37012 ft 529 kts 131°
2026-05-05 00:11 24.82360 -73.95935 37016 ft 529 kts 131°
2026-05-05 00:12 24.78191 -73.89311 37017 ft 529 kts 131°
2026-05-05 00:12 24.74004 -73.82666 37018 ft 528 kts 131°
2026-05-05 00:13 24.69819 -73.76035 37011 ft 528 kts 131°
2026-05-05 00:13 24.65628 -73.69404 37010 ft 528 kts 131°
2026-05-05 00:14 24.61437 -73.62780 37019 ft 528 kts 131°
2026-05-05 00:14 24.57264 -73.56190 37011 ft 527 kts 131°
2026-05-05 00:15 24.53413 -73.49309 37019 ft 532 kts 127°
2026-05-05 00:15 24.49648 -73.42317 37021 ft 532 kts 126°
2026-05-05 00:16 24.45892 -73.35358 37014 ft 532 kts 126°
2026-05-05 00:16 24.42131 -73.28400 37021 ft 531 kts 127°
2026-05-05 00:17 24.38345 -73.21413 37016 ft 531 kts 127°
2026-05-05 00:17 24.34569 -73.14455 37015 ft 531 kts 127°
2026-05-05 00:18 24.30786 -73.07497 37018 ft 532 kts 127°
2026-05-05 00:18 24.27003 -73.00549 37010 ft 533 kts 127°
2026-05-05 00:19 24.23226 -72.93623 37014 ft 533 kts 126°
2026-05-05 00:19 24.19416 -72.86648 37016 ft 532 kts 126°
2026-05-05 00:20 24.15632 -72.79729 37014 ft 531 kts 127°
2026-05-05 00:20 24.11821 -72.72772 37013 ft 531 kts 127°
2026-05-05 00:21 24.08032 -72.65865 37012 ft 531 kts 127°
2026-05-05 00:21 24.04245 -72.58972 37008 ft 530 kts 127°
2026-05-05 00:22 24.00446 -72.52067 37009 ft 530 kts 127°
2026-05-05 00:22 23.96654 -72.45185 37009 ft 529 kts 126°
2026-05-05 00:23 23.92846 -72.38283 37013 ft 529 kts 126°
2026-05-05 00:23 23.89032 -72.31378 37011 ft 527 kts 127°
2026-05-05 00:24 23.85241 -72.24527 37011 ft 527 kts 127°
2026-05-05 00:24 23.81474 -72.17728 37008 ft 527 kts 127°
2026-05-05 00:25 23.77659 -72.10854 37008 ft 527 kts 127°
2026-05-05 00:25 23.73865 -72.04024 37012 ft 527 kts 127°
2026-05-05 00:26 23.70086 -71.97233 37013 ft 527 kts 127°
2026-05-05 00:26 23.66289 -71.90418 37011 ft 527 kts 127°
2026-05-05 00:27 23.62491 -71.83611 37015 ft 527 kts 127°
2026-05-05 00:27 23.58401 -71.77058 37014 ft 521 kts 133°
2026-05-05 00:28 23.54028 -71.70766 37016 ft 521 kts 133°
2026-05-05 00:28 23.49630 -71.64433 37015 ft 521 kts 133°
2026-05-05 00:29 23.45253 -71.58137 37016 ft 522 kts 133°
2026-05-05 00:29 23.40872 -71.51839 37021 ft 522 kts 133°
2026-05-05 00:30 23.36499 -71.45558 37021 ft 522 kts 133°
2026-05-05 00:30 23.32099 -71.39246 37024 ft 522 kts 132°
2026-05-05 00:31 23.27718 -71.32968 37028 ft 522 kts 133°
2026-05-05 00:31 23.23338 -71.26698 37026 ft 522 kts 133°
2026-05-05 00:32 23.18961 -71.20441 37028 ft 522 kts 133°
2026-05-05 00:32 23.14566 -71.14163 37027 ft 522 kts 133°
2026-05-05 00:33 23.10187 -71.07916 37033 ft 521 kts 133°
2026-05-05 00:33 23.05762 -71.01610 37032 ft 521 kts 132°
2026-05-05 00:34 23.01386 -70.95383 37032 ft 522 kts 133°
2026-05-05 00:34 22.96975 -70.89113 37033 ft 523 kts 132°
2026-05-05 00:35 22.92565 -70.82853 37032 ft 523 kts 132°
2026-05-05 00:35 22.88129 -70.76575 37032 ft 523 kts 132°
2026-05-05 00:36 22.83695 -70.70308 37031 ft 522 kts 132°
2026-05-05 00:36 22.79291 -70.64093 37031 ft 521 kts 132°
2026-05-05 00:37 22.74897 -70.57899 37032 ft 521 kts 132°
2026-05-05 00:37 22.70454 -70.51642 37032 ft 521 kts 132°
2026-05-05 00:38 22.66046 -70.45444 37031 ft 521 kts 132°
2026-05-05 00:38 22.61604 -70.39203 37032 ft 521 kts 132°
2026-05-05 00:39 22.57180 -70.32996 37031 ft 520 kts 132°
2026-05-05 00:39 22.52780 -70.26829 37032 ft 520 kts 132°
2026-05-05 00:40 22.48349 -70.20627 37032 ft 520 kts 132°
2026-05-05 00:40 22.43959 -70.14488 37031 ft 520 kts 132°
2026-05-05 00:41 22.39529 -70.08302 37032 ft 520 kts 132°
2026-05-05 00:41 22.35098 -70.02120 37032 ft 520 kts 132°
2026-05-05 00:42 22.30688 -69.95976 37032 ft 520 kts 132°
2026-05-05 00:42 22.26257 -69.89809 37032 ft 520 kts 132°
2026-05-05 00:43 22.21839 -69.83669 37033 ft 520 kts 132°
2026-05-05 00:43 22.17401 -69.77507 37032 ft 519 kts 131°
2026-05-05 00:44 22.12986 -69.71384 37032 ft 519 kts 132°
2026-05-05 00:44 22.08545 -69.65232 37032 ft 518 kts 132°
2026-05-05 00:45 22.04110 -69.59096 37031 ft 519 kts 132°
2026-05-05 00:45 21.99677 -69.52969 37031 ft 519 kts 131°
2026-05-05 00:46 21.95243 -69.46848 37030 ft 518 kts 131°
2026-05-05 00:46 21.90824 -69.40755 37035 ft 518 kts 131°
2026-05-05 00:47 21.86391 -69.34649 37033 ft 518 kts 132°
2026-05-05 00:47 21.81940 -69.28525 37032 ft 517 kts 132°
2026-05-05 00:48 21.77533 -69.22468 37029 ft 517 kts 132°
2026-05-05 00:48 21.73091 -69.16369 37034 ft 517 kts 131°
2026-05-05 00:49 21.68668 -69.10303 37030 ft 517 kts 131°
2026-05-05 00:49 21.64243 -69.04241 37033 ft 516 kts 131°
2026-05-05 00:50 21.59802 -68.98166 37029 ft 516 kts 131°
2026-05-05 00:50 21.55363 -68.92097 37034 ft 516 kts 131°
2026-05-05 00:51 21.50918 -68.86029 37036 ft 516 kts 131°
2026-05-05 00:51 21.46489 -68.79990 37043 ft 516 kts 131°
2026-05-05 00:52 21.42043 -68.73933 37043 ft 515 kts 131°
2026-05-05 00:52 21.37618 -68.67910 37041 ft 515 kts 131°
2026-05-05 00:53 21.33186 -68.61886 37048 ft 515 kts 131°
2026-05-05 00:53 21.28757 -68.55872 37046 ft 515 kts 131°
2026-05-05 00:54 21.24319 -68.49852 37044 ft 514 kts 131°
2026-05-05 00:54 21.19881 -68.43838 37046 ft 514 kts 131°
2026-05-05 00:55 21.15444 -68.37833 37047 ft 513 kts 131°
2026-05-05 00:55 21.11008 -68.31835 37044 ft 513 kts 131°
2026-05-05 00:56 21.06593 -68.25872 37049 ft 513 kts 131°
2026-05-05 00:56 21.02145 -68.19872 37051 ft 513 kts 131°
2026-05-05 00:57 20.97721 -68.13908 37047 ft 512 kts 131°
2026-05-05 00:57 20.93309 -68.07968 37049 ft 511 kts 131°
2026-05-05 00:58 20.88880 -68.02013 37053 ft 512 kts 131°
2026-05-05 00:58 20.84452 -67.96016 37052 ft 512 kts 130°
2026-05-05 00:59 20.80092 -67.90013 37052 ft 512 kts 130°
2026-05-05 00:59 20.75738 -67.84026 37052 ft 512 kts 130°
2026-05-05 01:00 20.71350 -67.77999 37052 ft 512 kts 130°
2026-05-05 01:00 20.66980 -67.72003 37052 ft 512 kts 130°
2026-05-05 01:01 20.62628 -67.66040 37053 ft 512 kts 130°
2026-05-05 01:01 20.58233 -67.60023 37051 ft 512 kts 130°
2026-05-05 01:02 20.53859 -67.54043 37052 ft 512 kts 130°
2026-05-05 01:02 20.49461 -67.48035 37053 ft 512 kts 130°
2026-05-05 01:03 20.45090 -67.42070 37051 ft 511 kts 130°
2026-05-05 01:03 20.40699 -67.36084 37052 ft 511 kts 130°
2026-05-05 01:04 20.36332 -67.30137 37058 ft 511 kts 130°
2026-05-05 01:04 20.29728 -67.21155 37051 ft 512 kts 130°
2026-05-05 01:05 20.25333 -67.15185 37052 ft 512 kts 130°
2026-05-05 01:05 20.20925 -67.09203 37052 ft 512 kts 130°
2026-05-05 01:06 20.16519 -67.03230 37052 ft 512 kts 130°
2026-05-05 01:06 20.12118 -66.97270 37053 ft 513 kts 130°
2026-05-05 01:07 20.07721 -66.91320 37050 ft 513 kts 130°
2026-05-05 01:07 20.03323 -66.85377 37052 ft 512 kts 130°
2026-05-05 01:08 19.99032 -66.79308 37052 ft 514 kts 123°
2026-05-05 01:08 19.95623 -66.72628 37047 ft 515 kts 119°
2026-05-05 01:09 19.92264 -66.65900 37050 ft 516 kts 118°
2026-05-05 01:09 19.88971 -66.59311 37044 ft 516 kts 119°
2026-05-05 01:10 19.85609 -66.52588 37050 ft 516 kts 118°
2026-05-05 01:10 19.82239 -66.45860 37048 ft 516 kts 118°
2026-05-05 01:11 19.78880 -66.39162 37048 ft 515 kts 118°
2026-05-05 01:11 19.75504 -66.32438 37051 ft 515 kts 119°
2026-05-05 01:12 19.72144 -66.25754 37047 ft 515 kts 118°
2026-05-05 01:12 19.68792 -66.19093 37049 ft 515 kts 118°
2026-05-05 01:13 19.65410 -66.12379 37051 ft 515 kts 118°
2026-05-05 01:13 19.62033 -66.05683 37054 ft 515 kts 118°
2026-05-05 01:14 19.58653 -65.98989 37054 ft 515 kts 118°
2026-05-05 01:14 19.55349 -65.92453 36894 ft 491 kts 118°
2026-05-05 01:15 19.53746 -65.89282 36446 ft 483 kts 118°
2026-05-05 01:15 19.52165 -65.86159 35803 ft 479 kts 118°
2026-05-05 01:15 19.50590 -65.83050 35066 ft 478 kts 119°
2026-05-05 01:15 19.49030 -65.79972 34246 ft 477 kts 119°
2026-05-05 01:16 19.47472 -65.76897 33369 ft 478 kts 119°
2026-05-05 01:16 19.45894 -65.73787 32644 ft 473 kts 119°
2026-05-05 01:16 19.44357 -65.70758 32115 ft 467 kts 119°
2026-05-05 01:16 19.42819 -65.67728 31573 ft 462 kts 119°
2026-05-05 01:17 19.41310 -65.64758 31044 ft 456 kts 118°
2026-05-05 01:17 19.39821 -65.61829 30511 ft 451 kts 118°
2026-05-05 01:17 19.38343 -65.58923 29969 ft 447 kts 118°
2026-05-05 01:17 19.36890 -65.56067 29417 ft 442 kts 118°
2026-05-05 01:18 19.35449 -65.53235 28809 ft 436 kts 118°
2026-05-05 01:18 19.34029 -65.50447 28200 ft 429 kts 118°
2026-05-05 01:18 19.32609 -65.47662 27533 ft 425 kts 118°
2026-05-05 01:18 19.31036 -65.45073 26874 ft 419 kts 130°
2026-05-05 01:19 19.28939 -65.42990 26213 ft 413 kts 145°
2026-05-05 01:19 19.26471 -65.41507 25559 ft 407 kts 155°
2026-05-05 01:19 19.23932 -65.40228 24912 ft 402 kts 154°
2026-05-05 01:19 19.21407 -65.38947 24284 ft 397 kts 154°
2026-05-05 01:20 19.18934 -65.37694 23674 ft 391 kts 154°
2026-05-05 01:20 19.16507 -65.36464 23038 ft 387 kts 154°
2026-05-05 01:20 19.14099 -65.35243 22530 ft 377 kts 154°
2026-05-05 01:20 19.11758 -65.34058 22069 ft 372 kts 155°
2026-05-05 01:21 19.09435 -65.32881 21610 ft 375 kts 155°
2026-05-05 01:21 19.07063 -65.31681 21161 ft 378 kts 155°
2026-05-05 01:21 19.04697 -65.30483 20686 ft 376 kts 155°
2026-05-05 01:21 19.02318 -65.29279 20219 ft 375 kts 155°
2026-05-05 01:22 18.99968 -65.28090 19766 ft 374 kts 156°
2026-05-05 01:22 18.97636 -65.26910 19313 ft 373 kts 156°
2026-05-05 01:22 18.95295 -65.25727 18858 ft 372 kts 156°
2026-05-05 01:22 18.92957 -65.24545 18407 ft 371 kts 156°
2026-05-05 01:23 18.90625 -65.23366 17952 ft 371 kts 156°
2026-05-05 01:23 18.88294 -65.22189 17462 ft 377 kts 156°
2026-05-05 01:23 18.85942 -65.21001 16966 ft 374 kts 156°
2026-05-05 01:23 18.83569 -65.19803 16518 ft 374 kts 156°
2026-05-05 01:24 18.81236 -65.18625 16066 ft 371 kts 156°
2026-05-05 01:24 18.78901 -65.17446 15612 ft 368 kts 155°
2026-05-05 01:24 18.76613 -65.16291 15171 ft 365 kts 156°
2026-05-05 01:24 18.74308 -65.15128 14724 ft 361 kts 156°
2026-05-05 01:25 18.72082 -65.14006 14292 ft 358 kts 155°
2026-05-05 01:25 18.69836 -65.12874 13853 ft 354 kts 155°
2026-05-05 01:25 18.67633 -65.11764 13426 ft 348 kts 155°
2026-05-05 01:25 18.65469 -65.10674 13008 ft 341 kts 155°
2026-05-05 01:26 18.63329 -65.09596 12593 ft 333 kts 155°
2026-05-05 01:26 18.61265 -65.08556 12194 ft 327 kts 154°
2026-05-05 01:26 18.59242 -65.07538 11801 ft 320 kts 154°
2026-05-05 01:26 18.57242 -65.06531 11413 ft 314 kts 154°
2026-05-05 01:27 18.55267 -65.05538 11033 ft 309 kts 154°
2026-05-05 01:27 18.53350 -65.04575 10663 ft 304 kts 154°
2026-05-05 01:27 18.51481 -65.03597 10293 ft 299 kts 148°
2026-05-05 01:27 18.49944 -65.02161 10020 ft 288 kts 128°
2026-05-05 01:28 18.48740 -65.00511 9966 ft 284 kts 127°
2026-05-05 01:28 18.47549 -64.98886 9709 ft 278 kts 127°
2026-05-05 01:28 18.46357 -64.97263 9298 ft 284 kts 127°
2026-05-05 01:28 18.45150 -64.95622 8873 ft 286 kts 127°
2026-05-05 01:29 18.43925 -64.93955 8435 ft 284 kts 127°
2026-05-05 01:29 18.42722 -64.92319 8013 ft 281 kts 127°
2026-05-05 01:29 18.41541 -64.90713 7594 ft 279 kts 127°
2026-05-05 01:29 18.40358 -64.89105 7197 ft 275 kts 127°
2026-05-05 01:30 18.39194 -64.87523 6866 ft 269 kts 127°
2026-05-05 01:30 18.38065 -64.85989 6539 ft 264 kts 127°
2026-05-05 01:30 18.36940 -64.84460 6216 ft 260 kts 127°
2026-05-05 01:30 18.35846 -64.82975 5904 ft 254 kts 127°
2026-05-05 01:31 18.34780 -64.81527 5598 ft 249 kts 127°
2026-05-05 01:31 18.33719 -64.80087 5296 ft 243 kts 127°
2026-05-05 01:31 18.32695 -64.78696 5003 ft 238 kts 127°
2026-05-05 01:31 18.31696 -64.77340 4717 ft 234 kts 127°
2026-05-05 01:32 18.30700 -64.75988 4428 ft 229 kts 127°
2026-05-05 01:32 18.29736 -64.74680 4151 ft 224 kts 127°
2026-05-05 01:32 18.28803 -64.73370 3801 ft 224 kts 122°
2026-05-05 01:32 18.28029 -64.71950 3419 ft 224 kts 118°
2026-05-05 01:33 18.27279 -64.70518 3037 ft 224 kts 118°
2026-05-05 01:33 18.26542 -64.69116 2844 ft 215 kts 118°
2026-05-05 01:33 18.26026 -64.67692 2699 ft 207 kts 100°
2026-05-05 01:33 18.26107 -64.66178 2517 ft 209 kts 73°
2026-05-05 01:34 18.26882 -64.64890 2476 ft 213 kts 45°
2026-05-05 01:34 18.28122 -64.64021 2489 ft 218 kts 32°
2026-05-05 01:34 18.29471 -64.63264 2485 ft 219 kts 32°
2026-05-05 01:34 18.30813 -64.62495 2490 ft 218 kts 32°
2026-05-05 01:35 18.32134 -64.61732 2502 ft 211 kts 33°
2026-05-05 01:35 18.33345 -64.61034 2472 ft 193 kts 33°
2026-05-05 01:35 18.34517 -64.60352 2238 ft 190 kts 33°
2026-05-05 01:35 18.35617 -64.59716 1966 ft 169 kts 34°
2026-05-05 01:36 18.36635 -64.59124 1753 ft 165 kts 33°
2026-05-05 01:36 18.37634 -64.58543 1524 ft 163 kts 33°
2026-05-05 01:36 18.38594 -64.57986 1328 ft 147 kts 34°
2026-05-05 01:36 18.39456 -64.57513 1161 ft 135 kts 30°
2026-05-05 01:37 18.40357 -64.57214 1009 ft 132 kts 18°
2026-05-05 01:37 18.41246 -64.56995 819 ft 132 kts 18°
2026-05-05 01:37 18.42119 -64.56734 588 ft 128 kts 25°
2026-05-05 01:37 18.42924 -64.56374 484 ft 125 kts 30°
2026-05-05 01:38 18.43606 -64.55820 361 ft 123 kts 53°
2026-05-05 01:38 18.44065 -64.55067 153 ft 122 kts 61°
2026-05-05 01:38 18.44483 -64.54299 23 ft 111 kts 60°
2026-05-05 01:38 18.44734 -64.53828 18 ft 43 kts 61°
2026-05-05 01:39 18.44838 -64.53638 16 ft 15 kts 60°
2026-05-05 01:39 18.44854 -64.53580 15 ft 7 kts 118°
2026-05-05 01:39 18.44803 -64.53552 15 ft 7 kts 183°
2026-05-05 01:39 18.44757 -64.53599 16 ft 11 kts 240°
2026-05-05 01:40 18.44713 -64.53681 17 ft 12 kts 240°
2026-05-05 01:40 18.44682 -64.53740 18 ft 8 kts 241°
2026-05-05 01:40 18.44647 -64.53805 18 ft 12 kts 240°
2026-05-05 01:40 18.44605 -64.53883 19 ft 11 kts 240°
2026-05-05 01:41 18.44567 -64.53909 20 ft 7 kts 152°
2026-05-05 01:41 18.44516 -64.53878 20 ft 8 kts 150°
2026-05-05 01:41 18.44495 -64.53854 20 ft 3 kts 66°
2026-05-05 01:41 18.44504 -64.53838 20 ft 1 kts 60°
2026-05-05 01:42 18.44506 -64.53834 20 ft 0 kts 60°
2026-05-05 01:42 18.44506 -64.53833 20 ft 0 kts 60°